Location: The Saddle
(36.8333°N, 80.3417°W)
Time: 09:34:29
(UTC-05:00)

S-56A Canister/Altair - Pass Details

Date: 14 December 2023
Orbit: 640 x 2488 km, 38.9° (Epoch: 25 February)

Event Time Altitude Azimuth Distance (km) Brightness Sun altitude
Rises 05:16:16 0° 185° (S) 5,380 11.9 -25.2°
Reaches altitude 10° 05:25:07 10° 147° (SSE) 3,738 11.6 -23.4°
Maximum altitude 05:25:52 10° 142° (SE) 3,670 11.6 -23.3°
Drops below altitude 10° 05:26:36 10° 138° (SE) 3,619 11.7 -23.2°
Sets 05:33:22 0° 96° (E) 4,013 12.7 -21.8°
